Location: Treviso
(45.6669°N, 12.2430°E)
Time: 23:04:38
(UTC+01:00)

ISS - Pass Details

Date: 24 November 2023
Orbit: 415 x 417 km, 51.6° (Epoch: 06 December)

Event Time Altitude Azimuth Distance (km) Brightness Sun altitude
Rises 19:03:57 0° 289° (WNW) 2,362 1.1 -26.0°
Reaches altitude 10° 19:06:14 10° 302° (WNW) 1,499 -0.3 -26.4°
Enters shadow 19:07:19 17° 314° (NW) 1,145 -1.1 -26.6°
